Location: Demre
(36.2444°N, 29.9850°E)
Time: 12:16:46
(UTC+00:00)

Cosmos 1076 Rocket - Pass Details

Date: 11 March 2026
Orbit: 582 x 602 km, 82.5° (Epoch: 11 April)

Event Time Altitude Azimuth Distance (km) Brightness Sun altitude
Rises 17:30:11 0° 194° (SSW) 2,792 7.0 -18.2°
Reaches altitude 10° 17:32:23 10° 197° (SSW) 1,894 6.1 -18.6°
Maximum altitude 17:36:31 60° 278° (W) 666 3.9 -19.4°
Drops below altitude 10° 17:40:41 10° 359° (N) 1,904 6.2 -20.3°
Sets 17:42:54 0° 3° (N) 2,808 7.0 -20.7°
